Change the Weather History Date:

Thursday, December 6, 2012

  Actual Average Record
Temperature  
Mean Temperature 68 °F 64 °F  
Max Temperature 82 °F 74 °F 94 °F (1977)
Min Temperature 53 °F 53 °F 28 °F (1887)
Degree Days  
Heating Degree Days 0 5  
Month to date heating degree days 0 25  
Since 1 July heating degree days 15 85  
Cooling Degree Days 3 3  
Month to date cooling degree days 55 20  
Year to date cooling degree days 5144 4389  
Growing Degree Days 18 (Base 50)    
Moisture  
Dew Point 56 °F    
Average Humidity 73    
Maximum Humidity 100    
Minimum Humidity 46    
Precipitation  
Precipitation 0.00 in 0.03 in 0.39 in (1971)
Month to date precipitation T 0.19  
Year to date precipitation 17.47 21.20  
Sea Level Pressure  
Sea Level Pressure 29.94 in    
Wind  
Wind Speed 5 mph (SE)    
Max Wind Speed 14 mph    
Max Gust Speed 16 mph    
Visibility 6 miles    
Events Fog    
T = Trace of Precipitation, MM = Missing Value Source: NWS Daily Summary

Daily Weather History Graph

Daily Weather History Graph

Search for Another Location

Airport or City:

Trip Planner

Search our weather history database for the weather conditions in past years. The results will help you decide how hot, cold, wet, or windy it might be!

Date:

Astronomy

Dec. 06, 2012 Rise Set
Actual Time 7:07 AM CST 5:41 PM CST
Civil Twilight 6:42 AM CST 6:06 PM CST
Nautical Twilight 6:13 AM CST 6:34 PM CST
Astronomical Twilight 5:45 AM CST 7:03 PM CST
Moon 12:03 AM CST (12/6) 12:33 PM CST (12/6)
Length of Visible Light 11h 24m
Length of Day
10h 33m
Waning Gibbous, 49% of the Moon is Illuminated
Dec 6
Waning Gibbous
Dec 13
New
Dec 19
First Quarter
Dec 28
Full
Jan 4
Last Quarter

Hourly Weather History & Observations

Time (CST) Temp. Heat Index Dew Point Humidity Pressure Visibility Wind Dir Wind Speed Gust Speed Precip Events Conditions
12:53 AM 57.9 °F - 55.0 °F 90% 30.04 in 10.0 mi Calm Calm - N/A   Clear
1:53 AM 57.9 °F - 55.0 °F 90% 30.01 in 8.0 mi Calm Calm - N/A   Clear
2:53 AM 57.0 °F - 54.0 °F 89% 30.00 in 6.0 mi Calm Calm - N/A   Clear
3:53 AM 55.9 °F - 53.1 °F 90% 29.98 in 9.0 mi Calm Calm - N/A   Clear
4:53 AM 55.0 °F - 53.1 °F 93% 29.97 in 2.0 mi Calm Calm - N/A   Partly Cloudy
4:55 AM 55.4 °F - 53.6 °F 94% 29.97 in 1.0 mi Calm Calm - N/A   Mist
5:02 AM 53.6 °F - 51.8 °F 94% 29.97 in 0.2 mi Calm Calm - N/A Fog Fog
5:10 AM 53.6 °F - 51.8 °F 94% 29.97 in 1.0 mi Calm Calm - N/A   Mist
5:13 AM 55.4 °F - 51.8 °F 88% 29.97 in 2.5 mi Calm Calm - N/A   Scattered Clouds
5:20 AM 55.4 °F - 51.8 °F 88% 29.97 in 5.0 mi Calm Calm - N/A   Scattered Clouds
5:53 AM 55.0 °F - 53.1 °F 93% 29.97 in 6.0 mi Calm Calm - N/A   Clear
6:19 AM 53.6 °F - 51.8 °F 94% 29.98 in 4.0 mi Calm Calm - N/A   Scattered Clouds
6:26 AM 53.6 °F - 51.8 °F 94% 29.98 in 2.5 mi Calm Calm - N/A   Mostly Cloudy
6:29 AM 53.6 °F - 51.8 °F 94% 29.98 in 0.8 mi Calm Calm - N/A   Mist
6:41 AM 55.4 °F - 53.6 °F 94% 29.98 in 2.0 mi Calm Calm - N/A   Mostly Cloudy
6:49 AM 53.6 °F - 51.8 °F 94% 29.98 in 4.0 mi Calm Calm - N/A   Mostly Cloudy
6:53 AM 55.0 °F - 52.0 °F 89% 29.98 in 4.0 mi Calm Calm - N/A   Mostly Cloudy
7:00 AM 55.4 °F - 53.6 °F 94% 29.98 in 1.8 mi Calm Calm - N/A   Mostly Cloudy
7:06 AM 55.4 °F - 53.6 °F 94% 29.99 in 0.2 mi Calm Calm - N/A Fog Fog
7:22 AM 53.6 °F - 53.6 °F 100% 29.99 in 1.0 mi Calm Calm - N/A   Mist
7:27 AM 55.4 °F - 53.6 °F 94% 29.99 in 3.0 mi Calm Calm - N/A   Scattered Clouds
7:53 AM 55.9 °F - 55.0 °F 97% 29.99 in 3.0 mi Calm Calm - N/A   Clear
8:53 AM 63.0 °F - 60.1 °F 90% 30.00 in 6.0 mi Calm Calm - N/A   Clear
9:53 AM 68.0 °F - 61.0 °F 78% 29.99 in 10.0 mi SSE 3.5 mph - N/A   Clear
10:53 AM 72.0 °F - 62.1 °F 71% 29.98 in 10.0 mi SSE 6.9 mph - N/A   Clear
11:53 AM 75.0 °F - 62.1 °F 64% 29.95 in 10.0 mi South 6.9 mph - N/A   Clear
12:53 PM 77.0 °F - 61.0 °F 58% 29.91 in 10.0 mi South 6.9 mph - N/A   Clear
1:53 PM 80.1 °F 80.7 °F 59.0 °F 48% 29.87 in 10.0 mi SSE 8.1 mph - N/A   Clear
2:53 PM 81.0 °F 81.3 °F 59.0 °F 47% 29.86 in 10.0 mi SE 9.2 mph - N/A   Clear
3:53 PM 82.0 °F 82.1 °F 59.0 °F 45% 29.83 in 10.0 mi SE 10.4 mph - N/A   Clear
4:53 PM 80.1 °F 80.9 °F 60.1 °F 50% 29.83 in 10.0 mi ESE 11.5 mph - N/A   Clear
5:53 PM 75.9 °F - 57.9 °F 54% 29.83 in 10.0 mi ESE 9.2 mph - N/A   Clear
6:53 PM 72.0 °F - 57.9 °F 61% 29.86 in 10.0 mi SE 6.9 mph - N/A   Clear
7:53 PM 70.0 °F - 57.9 °F 65% 29.87 in 10.0 mi SE 8.1 mph - N/A   Clear
8:53 PM 69.1 °F - 62.1 °F 78% 29.87 in 10.0 mi SE 8.1 mph - N/A   Clear
9:53 PM 68.0 °F - 63.0 °F 84% 29.87 in 10.0 mi SE 8.1 mph - N/A   Clear
10:53 PM 68.0 °F - 64.0 °F 87% 29.87 in 10.0 mi SSE 8.1 mph - N/A   Clear
11:53 PM 66.0 °F - 63.0 °F 90% 29.86 in 10.0 mi SE 5.8 mph - N/A   Scattered Clouds